Wind_Speed
44 43 41 39 37 35 33 30 26 23 21 20 19 17 16 15 14 13 13 13 11 9 7 6 5 5 4 4 4 6 7 6 6 7 7 6 6 7 8 10 12 13 14 15 15 16 18 18 19 19 19 21 23 24 24 25 25 24 24 25 24 25 27 29 31 36 37 33 31 30 30 32 34 33 34 36 37 37 39 40 40 39 39 38 36
47 46 44 42 40 38 35 31 27 24 21 20 18 17 16 15 14 14 14 13 11 9 7 6 5 5 4 4 4 5 5 6 6 7 7 7 8 10 11 12 13 15 16 16 16 17 17 17 18 19 19 21 23 23 24 26 26 24 23 24 23 25 28 30 31 34 38 36 32 31 32 34 34 33 34 38 40 41 43 44 43 43 42 40 38
49 48 46 45 43 40 37 32 28 23 19 17 16 15 16 16 15 14 14 13 11 9 8 7 6 5 5 5 5 4 5 6 7 8 9 10 11 11 12 12 14 15 15 15 15 16 16 16 17 18 20 21 22 22 23 25 24 23 23 23 24 26 28 30 32 34 36 36 34 32 33 35 35 34 35 38 40 43 46 47 47 46 44 42 40
52 50 49 47 45 42 38 34 27 20 15 14 14 15 17 17 16 15 14 13 11 10 9 8 7 7 6 6 6 5 6 7 8 10 11 12 13 13 12 12 13 13 13 13 14 14 15 15 16 17 19 21 22 22 22 23 22 22 23 25 25 26 26 29 33 33 33 36 36 34 34 36 35 35 36 38 40 44 47 49 49 48 46 43 41
54 52 51 49 47 45 40 33 25 18 15 15 16 18 20 19 17 16 15 14 12 11 10 8 8 8 7 6 7 8 8 9 11 12 12 13 14 13 11 11 11 11 11 11 12 14 15 15 15 15 17 20 21 22 22 21 21 22 23 24 24 24 25 29 32 33 33 36 37 36 35 35 35 34 35 38 42 46 48 50 50 49 48 45 42
55 54 53 51 48 45 39 32 27 23 20 17 17 20 21 19 18 17 15 14 13 12 11 10 9 8 8 8 9 10 10 12 12 12 13 14 13 11 10 10 10 10 11 12 13 15 16 17 16 16 17 19 20 21 21 21 21 22 23 23 23 22 24 26 28 30 31 33 35 36 35 34 34 35 34 37 43 47 50 52 53 51 50 48 46
55 54 54 50 46 43 39 34 32 30 23 18 18 21 21 20 19 18 16 15 14 13 11 10 10 9 9 9 10 11 12 13 13 13 13 13 12 11 11 11 11 12 13 15 16 17 18 18 18 18 18 19 19 20 22 22 23 23 23 23 22 22 23 24 24 25 27 29 31 32 33 33 34 34 35 37 42 46 48 51 54 54 51 49 48
56 55 52 44 39 39 39 36 34 29 22 18 20 22 22 21 21 19 16 15 14 13 12 11 11 11 10 10 10 10 12 13 13 12 11 11 11 12 12 13 13 14 15 17 18 18 19 19 20 21 21 21 21 21 22 22 23 24 24 23 22 22 23 24 24 25 25 27 28 29 31 33 34 34 35 38 42 45 45 47 52 54 52 50 50
53 47 40 34 31 33 37 38 31 23 20 20 21 24 23 22 21 19 17 16 14 13 12 12 12 12 12 12 11 10 10 10 10 9 9 10 11 12 13 14 15 16 17 18 18 19 19 20 21 22 23 24 24 23 22 22 23 25 24 22 22 23 23 24 25 25 26 27 28 30 31 32 33 34 37 39 42 44 45 45 49 53 51 50 51
44 40 39 37 36 36 40 39 27 17 22 24 23 23 22 22 22 20 17 16 15 14 13 13 13 13 13 14 13 11 10 9 9 8 8 9 11 12 14 15 16 17 18 19 19 19 20 21 22 22 24 24 24 23 22 21 21 23 23 22 22 23 23 24 24 25 26 27 29 30 30 32 33 34 37 40 41 43 44 44 48 51 50 49 50
41 43 45 44 43 42 42 36 22 16 23 28 25 22 21 22 22 20 18 17 15 15 14 14 15 14 14 14 14 13 12 11 10 9 9 10 12 14 16 17 17 18 19 19 19 20 22 22 22 22 22 23 22 22 21 21 20 21 21 21 21 22 23 24 24 25 26 27 28 29 30 32 33 34 37 40 42 43 44 45 46 49 48 48 48
43 46 46 44 42 38 33 27 19 17 24 30 27 22 21 22 22 21 20 18 16 16 16 16 15 14 14 14 14 13 13 13 12 12 12 13 14 16 18 19 19 20 20 20 21 23 24 24 22 21 21 21 21 21 22 22 21 20 19 19 20 22 23 24 25 26 27 27 28 29 31 33 35 35 36 39 43 44 46 46 46 46 47 47 47
45 44 43 41 38 34 28 25 21 21 26 30 28 23 22 23 23 22 21 19 18 18 17 17 16 14 13 13 13 13 14 13 13 14 15 16 17 18 20 21 22 22 22 23 24 24 25 25 23 22 21 20 20 21 23 23 23 23 21 21 21 22 23 24 26 27 27 27 29 31 32 34 36 36 36 37 42 46 47 47 47 46 47 47 48
40 37 36 36 36 35 33 29 25 25 27 29 29 27 26 25 24 22 22 21 21 21 19 18 17 15 13 13 13 14 14 14 15 16 17 19 20 21 23 24 24 24 24 26 26 25 25 25 24 22 21 21 21 21 23 24 25 25 24 23 23 23 24 26 26 27 27 27 29 32 33 35 37 39 38 37 40 45 47 48 48 48 50 49 49
40 39 39 40 41 40 35 28 27 27 25 27 31 31 29 27 25 23 23 23 23 22 20 19 17 16 15 14 16 16 16 15 17 18 19 20 21 23 24 25 26 26 27 27 27 26 25 24 24 23 22 22 22 22 23 24 25 26 26 25 25 26 27 27 27 27 26 26 28 32 34 36 38 39 39 39 40 44 47 47 48 50 52 51 49
44 45 47 47 45 40 33 28 29 27 23 27 33 32 29 28 26 25 25 25 24 23 21 19 17 16 16 18 20 19 17 17 18 19 21 21 22 23 25 26 27 28 27 27 28 27 25 24 24 23 22 23 23 23 24 24 25 25 25 26 27 29 29 27 26 26 26 26 28 31 34 36 37 37 38 40 42 44 46 47 48 50 51 50 49
46 48 49 48 42 37 34 33 32 26 24 29 32 30 27 28 28 28 28 27 25 24 22 20 18 17 18 20 21 21 20 19 19 20 20 20 20 21 23 25 26 26 26 26 27 27 26 25 25 23 22 23 23 24 25 24 23 24 25 27 29 30 29 28 26 27 27 27 28 29 31 32 33 34 38 40 40 41 43 47 49 50 50 49 49
47 49 50 47 38 34 37 38 30 24 26 30 30 26 25 27 29 30 30 28 25 24 22 20 19 19 21 22 24 25 23 21 21 21 20 19 18 19 21 23 24 25 25 26 27 27 27 26 25 24 24 24 24 24 24 23 23 25 26 28 29 29 29 28 27 28 27 26 26 26 27 29 30 32 36 35 34 37 40 45 48 49 48 49 49
48 51 52 48 37 33 39 39 26 22 28 31 28 25 25 27 29 30 30 28 26 24 23 22 22 23 25 27 27 25 21 20 21 21 20 19 19 19 20 22 23 24 24 26 27 28 27 25 24 24 25 25 24 23 22 22 24 25 25 26 28 28 28 28 29 29 28 26 25 26 27 28 30 32 33 32 32 36 39 42 48 48 49 50 50
47 51 51 44 32 32 42 39 27 24 27 27 25 25 26 29 32 31 30 28 28 27 26 25 25 26 29 30 27 21 17 18 20 20 19 19 19 19 20 22 23 23 25 27 27 26 25 24 24 25 25 25 23 21 20 20 22 23 24 25 27 28 28 29 29 28 27 26 26 27 29 31 32 35 35 33 33 37 38 41 47 50 50 51 49
44 47 47 41 32 34 43 41 30 23 21 20 23 25 28 32 35 34 31 30 30 30 30 29 29 30 30 28 24 20 18 18 19 20 19 18 18 19 20 21 22 23 25 27 26 24 23 23 23 24 25 24 21 19 19 20 22 23 24 25 26 27 29 29 27 25 24 25 26 28 30 33 34 35 34 32 33 35 38 42 48 51 52 50 45
42 44 43 39 34 36 43 40 28 20 20 22 26 29 30 33 35 36 36 34 33 34 34 32 31 30 27 23 20 19 19 19 19 19 18 17 18 19 19 19 21 23 24 24 23 22 22 23 24 24 23 22 20 19 19 21 22 24 24 25 26 28 28 26 24 23 23 24 26 28 31 33 35 35 33 31 32 35 38 43 49 52 52 47 36
39 41 40 37 35 37 41 34 22 19 25 29 31 32 32 33 35 38 39 37 36 34 32 30 29 28 25 23 21 21 20 19 18 17 17 18 19 18 18 19 20 22 23 22 21 22 23 23 23 23 22 20 19 19 19 21 23 24 24 25 26 26 24 22 21 22 22 24 26 29 31 32 33 34 33 31 33 37 39 43 49 51 51 43 26
35 38 36 34 35 38 40 32 22 23 30 32 31 30 30 31 34 37 36 34 32 29 27 27 27 25 23 22 21 19 18 17 17 17 18 19 19 18 18 18 19 21 22 21 21 21 22 22 22 21 20 19 18 18 19 21 23 24 25 25 24 22 20 20 21 22 23 25 27 29 30 31 32 34 33 31 33 37 38 42 47 49 47 40 23
33 36 33 33 35 40 42 36 27 26 31 31 29 29 29 30 32 33 31 28 27 25 24 24 23 22 21 20 17 15 15 16 16 17 19 19 18 17 17 17 18 20 20 19 19 20 21 21 21 20 20 19 18 18 19 21 23 24 24 22 20 19 19 20 21 23 24 26 27 28 29 29 30 33 33 30 31 35 37 40 46 48 46 40 28
32 34 32 31 33 37 38 35 29 28 30 28 26 25 26 28 31 30 26 24 23 21 20 20 19 19 18 15 13 14 14 15 16 18 18 17 17 17 17 17 18 18 18 18 19 20 21 21 21 21 20 19 19 19 19 21 23 23 21 19 18 18 20 21 22 24 25 25 26 27 28 29 30 32 33 30 29 31 35 39 45 49 47 43 35
32 33 30 27 25 24 24 25 24 25 24 21 19 21 23 25 27 25 23 22 20 18 17 17 17 16 13 12 13 13 14 15 16 17 16 16 16 16 16 17 17 17 17 18 20 21 21 21 21 20 19 19 19 19 20 21 21 19 17 17 18 19 21 22 22 23 24 24 25 26 27 29 30 32 34 32 29 28 32 36 41 47 48 44 40
31 30 28 26 22 19 18 19 19 20 18 13 11 15 18 20 22 22 21 19 17 16 16 16 14 12 11 12 13 13 13 14 15 15 15 16 16 16 16 17 18 18 18 19 20 20 20 20 19 18 17 18 19 19 20 19 18 16 16 17 19 21 22 22 21 22 23 23 25 26 28 29 32 33 35 34 30 27 29 34 37 41 45 45 42
23 22 21 20 20 19 18 18 15 13 12 11 8 10 15 18 21 21 19 16 15 15 14 12 11 11 12 13 13 12 13 14 15 16 17 17 16 16 17 18 18 18 18 18 18 18 19 19 17 17 17 18 18 18 18 17 16 16 18 21 22 22 22 22 21 21 22 24 25 27 29 31 33 34 34 34 32 28 27 31 34 36 42 45 43
14 13 12 13 14 14 14 15 13 11 9 9 9 12 16 19 20 20 17 16 15 15 13 12 12 12 12 12 12 12 14 15 16 17 17 16 17 17 17 18 18 18 18 17 17 17 17 17 16 16 17 17 17 17 17 17 17 18 20 21 22 21 20 20 20 21 23 25 26 27 29 31 33 33 33 33 32 28 25 27 30 33 38 44 45
20 18 17 15 11 10 13 14 11 8 8 11 14 16 19 21 20 19 18 17 16 15 14 13 13 13 12 12 12 13 16 17 17 17 16 16 17 17 18 19 18 17 16 16 16 16 15 14 15 16 17 16 16 16 17 17 18 19 19 20 20 19 19 20 21 23 24 26 27 28 29 30 31 30 30 30 30 28 24 23 26 29 33 39 43
18 15 11 5 1 5 11 10 7 9 14 17 18 19 21 21 19 19 19 18 17 16 15 14 14 12 12 12 14 15 17 17 17 17 17 16 16 17 18 18 17 16 15 15 15 14 13 13 14 15 16 16 16 16 16 17 18 18 19 19 18 18 20 21 23 24 25 27 28 28 29 29 28 27 26 26 27 26 25 23 24 26 29 33 37
14 9 2 8 13 15 14 12 13 17 19 20 20 20 19 19 18 18 18 18 17 16 15 14 13 11 12 14 15 15 16 17 17 17 16 15 15 15 15 15 15 14 14 14 13 12 12 12 14 14 15 15 15 15 15 16 17 18 19 18 17 18 20 23 24 25 26 26 27 27 27 26 25 24 23 23 24 24 24 24 23 23 26 30 34
9 4 6 9 15 18 16 14 15 17 18 19 19 19 19 18 17 16 16 16 16 16 15 13 12 11 12 14 14 15 15 16 16 16 15 13 13 13 13 14 14 13 13 12 12 11 11 12 13 14 15 14 14 14 14 15 17 18 18 17 18 19 21 24 25 26 25 25 24 24 24 23 22 21 21 21 22 22 22 22 23 22 23 27 31
17 18 14 11 12 12 12 12 13 15 15 17 18 18 17 16 15 15 15 16 16 16 14 12 11 11 13 13 13 13 14 14 14 13 12 11 11 12 13 14 14 13 12 11 11 12 13 13 13 14 14 14 13 13 14 16 17 17 18 18 20 22 24 26 26 24 23 22 22 22 22 21 20 19 20 20 21 21 21 21 22 22 21 22 26
18 16 15 14 12 11 11 12 12 13 14 15 15 15 14 14 14 15 16 18 18 15 13 12 11 12 13 12 11 11 11 11 11 11 10 10 11 12 13 14 14 12 10 11 12 13 14 14 14 14 13 14 14 15 16 17 17 18 19 20 22 24 24 24 22 21 19 19 20 20 20 19 18 19 19 20 20 20 19 19 19 20 21 20 20
10 12 12 11 10 9 9 10 11 12 13 14 14 14 14 15 15 16 17 18 18 16 15 14 13 12 12 10 9 8 8 7 7 8 9 9 10 10 11 12 12 11 10 11 13 14 14 14 14 14 14 15 17 18 18 17 17 17 19 22 23 23 21 19 18 18 17 18 19 19 18 18 18 19 20 21 20 19 19 18 17 18 19 19 19
7 8 8 7 7 7 8 8 10 11 13 13 13 14 14 15 16 16 18 19 19 17 16 15 13 12 10 8 7 6 6 5 6 7 8 8 10 11 11 11 11 11 10 11 13 14 13 13 14 15 16 17 18 18 17 16 17 18 20 21 20 18 16 15 15 15 16 17 18 18 17 17 18 19 20 21 21 20 19 18 17 16 16 18 19
6 5 5 6 7 7 8 9 10 10 11 12 13 14 15 15 15 17 19 20 19 16 15 13 12 11 9 7 6 6 6 6 6 7 9 11 13 13 13 13 12 11 10 11 13 14 13 13 14 15 16 16 17 17 17 17 18 19 18 17 15 14 13 13 13 14 15 17 17 17 17 17 18 19 20 21 21 21 20 18 17 16 15 16 17
4 5 7 8 9 9 9 9 10 11 12 13 13 14 15 15 15 18 19 19 16 15 14 12 11 10 8 7 7 8 8 7 7 8 10 12 14 14 13 12 11 10 11 11 13 13 14 13 13 14 14 15 15 16 18 18 17 15 14 12 11 11 12 12 13 14 15 16 17 17 17 18 18 19 20 21 20 20 20 19 17 16 15 14 15
5 8 10 11 11 10 10 10 11 12 12 13 13 14 14 14 15 17 16 15 14 13 12 11 11 10 9 8 9 9 9 9 9 10 11 12 14 14 12 11 10 11 12 12 13 13 13 13 12 13 13 14 15 17 18 16 13 11 10 9 9 10 11 12 14 15 15 15 16 16 17 18 18 19 20 21 20 20 20 19 17 16 15 14 13
8 11 12 11 8 8 8 9 10 11 12 13 14 14 14 13 14 15 14 13 13 13 12 11 12 11 11 11 11 10 10 10 11 11 12 13 14 12 10 10 11 12 11 11 12 11 11 10 11 11 12 14 14 15 14 12 9 8 7 7 8 9 10 11 13 14 15 15 15 16 17 17 18 18 19 20 20 20 20 20 19 17 16 15 14
9 9 8 6 6 7 8 9 10 10 11 12 14 14 12 12 13 14 14 13 12 12 12 12 13 12 12 12 12 11 11 11 11 12 13 14 14 12 9 10 11 11 10 10 9 8 8 8 9 11 13 13 12 11 10 8 7 6 6 6 7 8 9 10 12 13 13 14 14 15 16 16 17 18 19 20 20 20 19 20 20 18 16 16 15
6 5 5 6 7 8 8 9 10 10 10 12 13 12 11 12 14 14 14 13 13 13 12 13 13 13 14 14 13 12 11 11 11 11 13 14 14 11 10 11 12 12 10 9 7 6 6 8 11 13 14 12 10 8 7 6 6 6 6 6 7 7 8 10 10 11 12 13 13 14 15 16 17 18 18 19 19 19 19 19 20 19 17 16 16
6 6 7 7 8 8 9 9 10 9 9 10 10 8 8 9 11 11 11 12 13 13 13 13 14 14 14 14 13 11 11 10 10 11 13 15 14 12 11 12 13 12 11 10 8 7 8 10 13 14 13 11 9 7 6 6 6 6 6 7 7 8 8 9 9 10 11 12 13 14 15 16 17 18 18 18 18 18 18 18 18 17 17 17 17
7 8 9 9 9 9 9 7 6 5 5 5 5 4 4 6 7 7 7 9 10 11 12 13 14 14 14 13 12 11 11 10 10 11 13 13 12 12 12 12 12 12 12 10 8 7 9 11 14 14 12 10 8 7 6 6 6 6 7 7 8 8 8 9 9 9 10 11 12 13 14 15 16 17 17 17 17 17 16 16 16 16 15 15 15
8 8 8 7 7 6 4 3 2 2 3 3 3 2 3 3 4 5 6 8 9 10 10 11 11 12 12 12 11 11 10 10 10 11 12 11 10 11 12 12 12 12 11 10 8 7 9 11 13 13 11 10 9 8 7 6 6 7 7 7 8 8 9 9 8 8 9 9 10 11 12 13 14 15 16 16 16 16 15 15 15 15 14 14 13
6 6 6 6 7 6 5 3 2 2 3 3 4 3 2 2 3 5 7 7 8 8 8 8 9 10 10 10 11 11 10 10 10 11 10 10 9 9 10 11 10 10 9 7 6 7 9 12 13 12 11 10 9 8 8 7 8 8 8 9 9 9 9 9 9 8 8 8 9 10 11 12 13 13 14 15 16 15 14 14 15 15 14 13 13
5 5 6 6 7 7 7 7 7 6 5 4 4 5 5 4 4 5 7 8 8 8 7 7 8 9 9 10 11 11 11 11 11 11 10 10 9 7 7 9 9 8 7 6 6 8 11 12 13 12 10 9 9 8 8 8 9 9 10 10 11 11 10 10 9 8 8 8 8 9 9 10 11 12 13 13 14 14 13 13 14 14 13 13 14
5 6 7 8 9 9 9 9 8 8 7 7 7 8 8 8 8 8 9 9 9 9 8 8 8 9 10 10 11 11 11 11 11 11 11 10 9 8 8 8 8 8 8 8 8 10 12 13 12 11 9 8 7 7 8 8 9 9 10 11 11 11 11 11 10 9 8 7 7 7 8 8 9 10 11 12 12 13 13 13 13 12 12 13 14
4 6 7 9 11 12 11 10 10 9 9 9 10 10 11 12 13 12 12 12 12 11 11 10 10 10 10 11 12 12 12 11 11 11 11 11 12 12 11 10 9 8 9 9 9 11 12 13 12 10 8 7 6 6 7 8 8 9 11 11 11 11 11 10 9 9 8 8 7 7 7 7 7 8 10 11 11 12 12 12 12 12 11 11 12
Wind_Direction
219 221 221 220 220 221 219 215 212 209 204 204 208 206 207 207 202 198 197 194 189 186 186 186 192 205 223 242 262 270 264 261 267 268 263 267 277 284 286 285 286 293 299 302 303 301 297 292 290 290 293 296 295 294 293 290 287 292 297 296 294 293 293 292 293 297 301 305 309 313 318 321 320 321 324 325 326 328 328 327 327 325 323 321 316
222 223 223 223 222 221 220 215 211 208 204 204 206 205 207 206 201 197 192 188 186 181 182 185 192 209 225 239 255 263 263 262 263 263 265 272 276 278 281 285 290 297 301 301 302 302 298 291 289 288 290 292 293 294 296 292 290 295 298 296 296 294 289 287 288 291 296 301 306 309 315 318 317 320 325 325 326 328 327 326 325 324 322 320 316
224 225 225 225 224 223 221 215 209 205 205 209 212 212 213 208 202 197 190 187 188 186 189 196 207 227 239 249 257 260 258 254 252 260 267 272 277 281 287 293 298 300 299 299 303 306 302 297 293 290 287 287 289 292 293 293 294 296 296 296 296 294 291 288 287 288 292 298 302 307 313 316 316 319 324 324 325 327 326 326 325 324 321 319 316
225 227 227 227 227 224 219 211 201 197 203 217 222 220 220 214 205 198 190 191 194 193 199 209 220 236 249 258 266 266 256 252 256 263 269 277 285 292 295 296 298 299 298 301 307 308 305 304 302 297 292 290 290 290 288 289 292 293 294 295 295 294 294 292 288 288 291 293 297 303 310 313 314 318 321 323 325 326 326 326 327 325 321 318 315
226 227 228 229 227 222 214 202 189 188 199 210 215 218 221 217 207 201 194 193 199 202 208 217 225 237 250 260 268 266 257 256 263 267 275 285 290 291 290 290 294 298 302 307 310 307 305 305 306 304 298 295 294 292 289 288 290 292 293 294 295 294 294 293 292 292 291 291 294 299 304 308 311 315 320 323 325 325 327 328 327 324 321 318 316
227 228 229 228 223 215 204 190 185 194 201 206 213 218 221 218 209 204 199 196 201 207 212 222 232 241 252 261 267 266 262 262 265 270 280 286 286 281 278 282 290 297 306 311 309 305 303 301 301 300 297 297 296 294 293 292 293 294 295 296 296 295 294 293 292 291 290 290 292 296 301 306 309 313 319 324 324 325 327 327 326 323 321 317 314
227 228 229 225 215 205 195 190 199 206 204 210 220 218 219 219 212 207 203 200 204 209 216 227 238 245 249 256 264 267 264 263 264 271 279 281 277 272 274 280 287 294 302 307 306 302 300 298 297 295 294 294 294 293 292 292 293 294 296 297 297 295 294 293 290 288 287 287 290 294 299 305 308 311 318 323 323 325 326 324 322 321 320 316 313
227 228 225 217 205 196 194 202 212 210 204 213 220 215 217 220 216 212 207 205 208 211 217 230 241 242 243 249 259 262 261 261 263 269 277 277 272 271 275 280 284 290 297 302 302 299 297 297 296 294 292 291 291 292 291 291 290 291 293 295 293 293 293 292 290 289 288 288 290 294 299 303 305 309 316 322 323 324 326 322 318 317 317 314 311
226 223 214 203 192 190 200 211 213 209 215 221 214 211 217 220 218 216 212 211 213 213 220 233 240 240 242 249 255 256 259 263 264 269 276 278 275 275 278 283 287 291 294 297 298 297 294 294 293 291 289 287 287 289 290 291 289 289 292 292 291 291 292 291 291 291 291 292 293 295 297 299 303 309 316 322 323 323 324 321 316 315 314 311 309
219 214 209 203 199 203 212 212 207 216 229 223 212 210 215 218 220 219 216 217 218 218 224 235 239 241 245 248 249 252 259 264 265 269 279 283 283 281 283 287 290 290 291 293 294 292 290 290 292 292 288 285 283 284 288 291 291 290 292 291 291 292 292 291 291 292 292 292 292 294 295 296 302 310 314 320 324 323 322 319 315 314 312 307 305
215 215 215 210 207 211 211 205 203 226 228 218 214 213 213 218 221 220 220 222 221 222 229 235 239 242 245 245 246 252 261 265 267 272 277 280 283 284 286 288 289 287 288 290 290 288 288 291 296 297 291 285 281 281 284 288 290 291 292 292 292 292 291 291 292 293 292 291 290 291 292 294 301 307 312 319 323 322 320 318 314 313 310 305 303
217 218 218 214 206 201 199 199 209 226 222 216 216 213 212 218 221 221 224 225 224 227 230 233 238 241 244 247 249 256 263 267 270 273 275 277 279 281 284 286 286 286 286 287 287 287 289 294 300 300 294 286 280 279 280 283 286 288 289 291 292 291 290 290 292 294 293 291 289 289 290 295 300 304 310 318 321 321 322 319 315 312 308 303 299
219 218 216 209 197 191 201 215 218 217 215 213 212 213 215 219 221 223 226 228 229 231 232 234 237 239 244 251 254 259 264 268 271 273 275 277 276 276 277 280 282 283 283 285 286 287 291 297 300 300 295 287 281 279 279 281 284 285 285 287 291 293 292 291 291 293 293 291 288 288 292 295 297 300 307 313 318 321 322 319 316 313 308 302 298
214 208 202 198 196 204 221 230 223 216 215 212 212 215 218 221 224 226 229 232 233 234 233 234 235 235 240 249 253 257 262 267 272 275 275 275 274 272 272 274 276 278 280 284 286 287 292 296 298 299 295 288 285 282 281 282 284 285 284 284 290 295 294 293 292 293 295 295 290 289 292 293 294 298 303 307 314 320 322 319 317 314 311 306 302
213 207 204 207 211 218 227 230 222 216 215 216 217 217 219 223 227 227 230 234 235 235 235 235 236 236 241 250 254 258 264 270 275 276 274 274 272 269 269 271 273 276 281 286 287 287 291 295 297 298 295 291 290 289 286 285 283 283 283 283 289 294 296 297 298 299 300 298 292 289 290 292 293 296 298 300 307 317 321 320 318 317 315 310 305
218 217 218 218 219 223 226 222 215 212 216 221 220 217 218 223 226 228 232 235 236 238 237 236 238 240 245 253 258 261 267 274 277 277 276 275 271 267 268 271 274 279 284 287 287 287 290 294 295 297 296 295 295 293 290 286 282 280 280 282 287 292 296 300 302 301 299 296 291 290 291 294 296 297 296 297 303 315 321 319 320 321 317 310 305
223 223 223 218 220 228 225 213 209 213 219 221 219 215 216 221 226 230 234 237 239 240 239 238 240 244 250 257 262 266 271 274 276 277 277 276 273 273 275 276 278 282 285 287 286 286 288 292 293 295 297 299 299 295 291 286 281 278 279 282 287 292 297 301 300 298 298 297 295 295 296 301 302 301 300 299 306 318 321 319 322 323 316 308 305
225 226 224 218 224 234 223 210 209 213 215 215 214 214 218 223 228 232 235 240 242 243 243 243 243 248 254 260 266 270 273 273 274 277 277 276 277 281 281 280 281 283 285 285 284 284 287 289 291 294 299 302 302 298 292 286 282 281 281 285 291 295 300 301 299 299 302 302 301 302 305 309 309 308 306 306 313 324 324 323 326 323 314 309 305
231 232 227 222 226 229 216 207 206 207 211 213 212 215 222 226 231 235 239 243 246 247 247 246 249 253 257 261 266 271 276 278 277 278 278 278 281 284 282 282 284 286 287 285 283 284 287 288 290 295 300 304 304 300 295 290 287 285 286 290 296 299 302 303 305 308 308 307 307 310 313 316 316 316 315 312 318 325 327 330 332 325 315 311 307
240 235 226 220 223 224 215 209 204 206 213 216 215 221 229 233 236 239 241 245 248 249 248 248 252 256 259 261 263 267 278 284 280 275 276 279 284 286 284 285 287 287 285 282 282 285 287 287 292 298 302 304 304 302 299 295 292 291 292 297 301 303 305 308 311 313 313 313 315 317 319 321 321 322 321 319 321 327 330 335 338 332 321 314 310
241 231 221 216 223 227 218 210 205 207 213 216 219 227 234 238 241 242 244 248 250 249 249 249 251 255 258 260 260 265 278 283 276 273 278 284 288 290 288 288 288 285 282 282 284 286 286 288 294 299 302 303 304 302 300 297 296 296 299 302 305 307 311 312 314 316 317 317 319 320 321 323 323 325 327 326 327 331 333 338 342 338 329 321 314
237 227 218 218 227 227 216 207 202 201 208 218 227 232 236 242 247 248 247 249 252 252 251 250 251 254 255 253 258 272 283 280 273 276 284 290 293 294 292 290 288 285 283 283 283 285 288 292 297 299 301 303 303 301 299 299 299 301 304 306 309 311 314 315 317 319 318 317 318 320 323 326 327 329 331 332 335 338 339 342 343 340 336 331 320
232 222 217 222 229 221 207 200 196 199 212 226 236 239 244 252 255 255 253 252 252 252 251 251 252 251 250 253 264 276 279 274 274 281 291 296 297 297 294 291 288 286 284 283 284 287 291 295 298 301 303 304 302 300 301 301 302 304 306 309 311 313 315 317 318 318 316 317 320 323 328 331 331 332 331 333 340 345 346 347 347 344 344 344 333
225 218 220 228 227 212 199 197 207 217 224 235 243 247 255 263 265 264 260 254 251 253 256 255 250 246 252 266 276 275 268 269 277 288 295 299 298 295 293 291 288 286 284 284 286 288 292 296 300 302 303 303 302 301 301 301 302 304 308 311 313 315 316 318 317 316 317 320 324 328 333 335 335 335 334 334 342 349 351 351 352 352 352 353 352
219 216 223 228 220 207 201 207 220 227 229 238 246 249 256 266 269 267 262 253 254 260 258 249 244 250 265 278 277 266 262 271 284 293 298 299 297 294 292 290 286 285 284 284 287 290 294 298 301 302 303 302 302 302 301 302 304 307 310 314 315 317 318 318 318 318 321 325 329 332 335 337 338 338 338 337 341 351 356 353 354 358 360 1 6
215 217 224 224 216 210 209 216 228 233 233 239 247 247 253 262 264 262 258 253 254 253 244 242 253 268 276 275 265 259 266 279 291 297 298 297 294 291 289 286 284 283 284 285 289 294 298 301 302 303 303 303 303 303 304 305 308 310 313 315 316 318 320 321 321 323 325 327 331 334 336 339 340 340 343 342 341 351 360 357 355 1 4 4 8
215 216 218 216 215 216 217 221 232 235 232 237 245 245 248 254 254 251 249 245 240 239 244 257 269 273 270 263 258 263 275 288 296 298 297 293 288 285 283 284 283 283 285 289 294 297 300 301 302 302 301 300 301 303 305 307 309 309 310 311 316 321 323 324 324 325 326 328 332 335 338 340 341 342 345 348 345 347 358 0 357 0 5 6 6
215 217 219 221 225 229 224 223 232 233 223 219 233 241 241 242 242 239 237 237 240 251 263 268 267 263 259 258 262 272 288 298 301 299 293 287 283 281 281 282 282 283 286 291 295 298 300 301 301 299 298 299 300 302 305 306 303 304 307 313 319 322 322 322 321 322 325 330 334 338 340 342 343 343 345 349 350 347 355 3 2 1 5 10 10
217 222 225 223 221 217 208 202 206 210 199 194 215 240 239 236 235 233 234 241 251 257 260 257 254 255 255 260 271 286 299 306 304 297 291 286 282 279 278 278 280 284 288 292 295 298 300 299 299 298 298 299 299 300 302 299 295 300 309 314 317 317 316 317 320 322 327 333 336 339 341 341 342 343 343 347 352 351 355 5 6 3 7 13 14
180 185 177 167 174 182 176 169 170 173 184 205 233 243 238 235 234 235 241 248 249 247 246 245 246 251 257 267 282 297 308 311 306 298 292 286 280 277 276 277 281 286 290 293 295 296 297 297 297 299 299 298 298 297 297 296 296 302 309 311 313 316 317 320 325 328 331 336 337 338 340 340 340 341 343 347 351 354 357 4 7 8 12 15 15
138 139 137 131 134 149 151 149 156 179 224 256 260 245 236 239 242 244 245 244 241 240 242 244 249 256 264 276 292 305 312 312 307 299 292 285 280 278 278 279 283 287 289 291 293 293 294 295 297 299 299 297 296 295 296 299 302 305 309 312 316 321 324 326 331 333 333 335 336 336 337 338 338 339 343 347 351 354 358 1 6 14 19 18 17
125 129 140 145 153 173 166 166 188 224 243 255 253 242 240 244 245 243 241 239 239 241 244 248 253 261 273 289 301 308 311 311 306 297 290 284 281 280 279 281 284 286 286 288 290 291 291 293 296 298 297 295 295 296 298 302 305 307 312 318 323 327 331 332 334 335 334 333 334 335 335 336 337 338 341 347 352 356 358 359 6 17 24 23 20
123 119 195 259 255 242 231 233 242 244 245 245 242 241 246 247 245 245 243 240 239 242 245 249 254 266 286 298 303 307 309 308 302 292 287 285 283 280 280 281 281 281 283 286 288 289 293 297 298 297 296 296 297 298 300 305 310 314 319 324 328 331 334 335 334 333 333 332 333 335 336 337 337 338 342 348 354 358 1 1 5 16 26 28 25
168 208 273 248 230 228 231 237 243 245 245 243 242 246 250 249 249 250 247 246 250 253 252 252 257 273 290 296 299 305 309 306 298 289 286 285 281 277 278 279 278 280 285 287 289 294 300 302 298 295 295 298 300 304 309 312 316 320 323 327 331 332 333 333 332 331 332 332 333 337 339 339 339 341 347 351 355 359 4 5 7 13 23 29 29
250 258 255 233 220 221 224 229 236 238 238 239 243 247 248 249 253 256 261 270 273 266 258 255 261 276 287 292 298 306 309 303 294 288 286 286 282 280 281 280 278 281 285 289 295 302 304 302 297 294 295 299 303 310 316 317 318 321 324 328 331 332 329 327 328 329 331 335 339 342 343 343 343 348 354 358 359 2 6 9 11 14 18 25 30
251 240 223 216 222 227 225 228 233 234 235 239 242 245 250 258 265 270 276 275 268 258 254 259 266 277 285 291 299 309 309 300 289 283 282 283 283 284 284 281 278 278 281 288 295 299 300 299 296 295 297 302 306 311 315 316 318 322 325 327 328 327 325 324 326 330 335 341 345 347 348 348 350 354 359 3 5 6 9 12 15 17 18 22 30
197 191 196 207 217 217 218 223 227 230 235 239 245 253 262 268 270 272 272 263 252 246 250 258 265 272 278 287 299 307 304 298 292 290 289 290 294 297 293 285 280 278 281 287 291 293 295 295 294 296 300 304 308 311 313 317 320 321 322 322 321 322 324 327 331 336 342 348 351 352 354 355 358 1 4 6 7 8 11 15 18 20 21 22 28
169 185 197 207 211 214 219 223 226 232 239 246 254 260 264 267 270 271 266 255 247 244 246 252 261 269 275 286 297 294 289 296 308 315 317 321 327 326 317 303 292 285 285 290 292 292 293 292 292 297 302 306 310 314 316 319 321 319 318 319 321 323 329 334 336 341 350 355 356 358 359 1 5 7 7 7 8 10 12 15 19 22 24 24 25
193 201 209 219 227 231 234 235 238 245 253 259 262 263 264 268 271 267 257 248 244 245 247 252 263 270 274 283 287 282 283 294 308 323 330 331 333 333 324 311 299 286 282 289 293 293 294 294 294 299 304 308 314 319 321 321 320 319 319 322 324 329 334 338 342 350 357 0 0 0 1 4 9 11 11 9 8 10 13 16 19 23 27 27 26
221 240 244 244 242 239 241 248 256 264 271 272 271 270 270 270 268 263 256 250 245 244 246 254 267 273 272 271 274 277 284 293 306 321 327 326 328 327 318 305 293 281 278 286 291 291 291 294 298 303 307 312 317 320 321 320 319 320 324 326 329 335 341 345 349 355 360 1 2 2 1 2 6 11 14 13 9 8 11 16 19 23 28 31 30
256 251 240 238 239 239 245 255 262 267 269 266 262 263 266 267 266 265 260 252 243 240 243 256 269 270 262 259 264 271 280 291 302 313 320 323 324 319 308 292 280 274 277 284 288 288 290 297 303 307 309 312 315 316 317 319 321 325 328 331 335 342 347 348 351 355 358 360 1 2 2 1 3 8 13 14 10 8 10 15 19 23 26 31 34
241 234 229 231 238 247 257 264 265 265 264 261 261 265 269 270 267 263 257 248 240 236 243 256 265 263 258 257 260 267 276 287 298 310 319 323 321 312 296 279 269 269 275 281 284 286 291 299 306 311 313 315 316 316 316 319 323 326 329 334 340 345 347 347 349 352 355 358 1 3 4 3 3 6 11 13 11 9 9 12 18 22 25 29 36
226 224 229 246 267 276 279 275 268 266 267 269 269 269 268 266 262 257 254 248 239 236 244 258 265 265 261 257 259 265 273 284 298 312 320 323 318 306 286 270 264 264 270 278 283 288 296 305 316 324 326 325 324 320 317 318 321 323 328 335 338 340 343 345 346 350 354 357 0 4 6 5 4 6 9 11 11 10 10 11 16 22 25 28 34
243 256 275 289 293 292 285 276 271 272 275 276 277 275 269 263 261 261 258 249 240 239 248 259 265 264 259 256 256 262 271 284 300 314 321 322 315 298 274 262 258 256 261 271 282 294 307 317 327 332 334 334 329 322 317 317 318 319 323 329 332 336 340 342 344 349 353 355 358 2 4 4 4 7 10 11 10 10 11 12 15 19 24 28 31
280 286 290 292 291 286 280 276 279 284 285 283 284 286 277 262 257 258 259 253 247 246 250 255 258 258 253 250 251 258 268 282 296 309 318 317 307 285 265 255 252 250 255 266 278 294 313 324 330 333 334 335 331 323 319 317 315 315 319 323 327 332 336 340 344 350 352 353 355 359 2 2 2 4 9 11 10 9 10 13 15 19 22 26 30
287 291 293 292 287 283 280 279 281 289 300 300 295 291 274 255 246 245 250 253 253 253 253 254 254 253 250 247 248 254 266 279 294 306 313 311 298 280 263 251 246 248 255 265 277 294 312 323 330 334 335 333 328 321 317 315 314 314 315 317 320 324 328 334 341 347 347 348 352 358 0 1 1 2 4 7 9 9 9 12 16 20 24 27 29
293 294 291 287 280 275 275 281 292 313 339 349 343 312 272 250 243 246 252 256 259 259 257 254 251 249 249 249 251 259 271 284 296 306 310 308 296 279 259 242 239 249 257 263 276 297 311 319 328 334 334 327 320 315 310 309 312 313 312 311 312 315 319 324 332 338 341 343 349 355 357 358 1 1 360 0 4 10 12 13 15 19 25 30 30
293 293 289 282 270 257 249 253 273 304 327 341 343 329 287 250 250 258 261 263 267 266 262 259 258 258 258 260 264 271 279 286 296 304 306 303 293 275 247 228 230 244 256 265 281 300 310 315 322 328 327 319 314 312 310 309 313 315 314 313 312 312 313 317 322 329 335 340 347 352 353 353 356 359 358 356 0 7 14 17 16 15 19 27 33
301 295 288 278 265 259 258 257 255 259 269 284 297 299 288 277 273 269 265 267 270 266 258 254 256 260 264 268 272 277 281 285 291 297 296 291 282 261 228 217 224 240 255 271 289 301 308 313 318 323 321 312 307 309 311 312 313 314 315 315 314 311 310 312 316 321 329 337 344 349 349 347 349 354 355 356 358 3 11 19 20 14 12 20 30
276 267 265 264 263 267 269 267 265 266 266 266 269 274 274 272 271 268 265 264 264 258 250 244 244 249 258 265 269 271 274 278 281 283 282 276 265 246 230 229 238 248 255 264 280 297 306 310 315 318 312 300 296 303 308 310 312 314 316 315 312 307 303 304 309 316 324 333 341 346 347 344 344 348 353 355 355 358 7 18 23 19 13 17 26
278 273 270 268 268 269 271 275 280 282 282 279 277 275 272 270 270 268 264 261 260 256 250 246 244 245 250 257 260 261 261 262 266 271 272 262 248 238 236 241 248 252 253 259 277 298 305 307 308 307 297 285 284 296 306 313 320 327 329 326 318 308 298 297 303 312 320 327 336 344 348 346 342 344 350 354 355 357 2 13 22 23 19 20 26
Height
1509 1510 1511 1513 1515 1516 1519 1522 1525 1527 1528 1529 1531 1532 1533 1534 1534 1534 1535 1536 1537 1538 1539 1540 1540 1540 1540 1540 1541 1541 1542 1542 1543 1543 1543 1542 1542 1542 1541 1540 1540 1539 1539 1538 1537 1536 1535 1534 1533 1532 1532 1531 1530 1530 1529 1528 1527 1527 1526 1525 1524 1523 1522 1519 1516 1511 1509 1510 1510 1508 1508 1506 1503 1502 1500 1497 1496 1495 1493 1491 1489 1487 1485 1482 1479
1505 1506 1507 1509 1511 1513 1517 1521 1524 1526 1528 1529 1531 1532 1532 1532 1532 1532 1533 1534 1535 1536 1538 1538 1539 1539 1539 1538 1539 1539 1540 1540 1541 1541 1541 1541 1540 1539 1539 1538 1538 1537 1537 1536 1535 1534 1533 1532 1531 1531 1530 1529 1528 1528 1527 1526 1525 1524 1524 1523 1521 1520 1519 1517 1514 1510 1506 1506 1507 1506 1505 1503 1500 1499 1497 1494 1491 1489 1487 1486 1484 1482 1480 1477 1474
1501 1503 1504 1506 1508 1511 1516 1520 1524 1527 1529 1531 1533 1533 1533 1532 1531 1530 1531 1532 1533 1534 1536 1536 1537 1537 1537 1536 1537 1537 1538 1538 1539 1539 1539 1538 1538 1537 1537 1536 1536 1535 1535 1534 1533 1532 1531 1530 1529 1529 1528 1527 1526 1526 1525 1524 1523 1522 1521 1520 1518 1517 1517 1515 1512 1509 1505 1502 1503 1503 1502 1500 1497 1496 1495 1492 1488 1486 1483 1480 1479 1476 1474 1472 1469
1498 1499 1501 1503 1506 1510 1514 1519 1524 1528 1532 1534 1534 1534 1532 1531 1529 1528 1529 1529 1531 1532 1533 1534 1534 1534 1534 1534 1534 1535 1535 1536 1536 1537 1536 1536 1535 1534 1534 1534 1533 1533 1532 1532 1531 1531 1530 1529 1528 1527 1526 1525 1524 1523 1523 1522 1521 1520 1518 1517 1516 1514 1514 1512 1510 1508 1504 1500 1499 1500 1499 1497 1495 1493 1491 1488 1486 1483 1480 1476 1474 1471 1469 1467 1464
1494 1496 1498 1500 1504 1509 1512 1518 1525 1528 1529 1530 1530 1530 1529 1528 1528 1527 1527 1527 1529 1530 1531 1532 1532 1532 1532 1532 1532 1533 1533 1534 1534 1534 1533 1533 1532 1532 1531 1531 1531 1531 1530 1530 1530 1529 1528 1527 1526 1525 1524 1523 1522 1521 1520 1519 1518 1517 1516 1514 1513 1511 1510 1509 1508 1506 1503 1500 1497 1496 1496 1495 1492 1490 1488 1485 1481 1478 1476 1473 1469 1466 1463 1461 1459
1490 1492 1495 1498 1503 1505 1508 1516 1523 1523 1523 1523 1524 1525 1526 1526 1526 1525 1525 1525 1526 1528 1529 1529 1530 1529 1529 1529 1530 1531 1531 1531 1531 1531 1531 1530 1529 1529 1528 1528 1528 1528 1528 1528 1528 1527 1526 1525 1524 1523 1522 1520 1520 1519 1518 1517 1516 1514 1513 1511 1510 1509 1507 1506 1505 1503 1501 1499 1496 1494 1493 1492 1489 1487 1486 1484 1479 1474 1470 1466 1463 1462 1459 1455 1453
1487 1489 1492 1497 1500 1500 1505 1514 1517 1517 1518 1520 1522 1523 1524 1524 1524 1523 1523 1523 1524 1525 1526 1527 1527 1527 1527 1527 1528 1528 1529 1529 1529 1529 1528 1528 1527 1527 1526 1526 1526 1526 1526 1526 1525 1524 1523 1522 1521 1521 1520 1518 1517 1516 1515 1514 1513 1512 1510 1509 1507 1506 1504 1503 1502 1500 1498 1496 1494 1492 1490 1488 1486 1484 1483 1481 1477 1473 1468 1462 1456 1455 1455 1451 1447
1484 1487 1492 1496 1496 1495 1504 1512 1514 1515 1516 1517 1519 1521 1521 1522 1522 1522 1521 1521 1522 1523 1523 1524 1525 1524 1525 1525 1526 1526 1527 1527 1527 1527 1526 1526 1525 1524 1524 1524 1524 1524 1524 1523 1523 1522 1521 1520 1519 1518 1517 1516 1515 1514 1513 1512 1510 1509 1507 1506 1505 1503 1502 1500 1499 1498 1496 1493 1492 1490 1488 1485 1483 1481 1480 1478 1473 1469 1467 1462 1453 1449 1448 1445 1442
1483 1487 1492 1495 1494 1497 1505 1509 1512 1516 1517 1517 1518 1518 1518 1520 1520 1520 1520 1520 1521 1521 1521 1522 1522 1522 1522 1523 1524 1524 1525 1525 1525 1525 1524 1523 1523 1522 1522 1522 1522 1521 1521 1521 1520 1519 1518 1517 1516 1515 1514 1513 1512 1511 1510 1509 1508 1506 1504 1503 1502 1500 1499 1498 1496 1495 1493 1491 1489 1487 1485 1483 1480 1478 1476 1474 1470 1466 1463 1460 1453 1446 1443 1440 1436
1482 1485 1486 1487 1489 1494 1500 1503 1509 1515 1516 1516 1517 1516 1516 1518 1519 1519 1519 1519 1520 1520 1520 1520 1519 1520 1520 1521 1522 1522 1522 1522 1523 1522 1522 1521 1521 1521 1520 1520 1520 1519 1519 1518 1517 1516 1516 1515 1514 1513 1511 1510 1509 1508 1507 1506 1505 1503 1502 1500 1499 1498 1496 1495 1494 1492 1490 1488 1486 1484 1482 1479 1478 1476 1472 1470 1468 1463 1459 1457 1450 1444 1440 1435 1429
1478 1479 1479 1480 1483 1487 1490 1497 1506 1512 1513 1513 1514 1514 1515 1516 1517 1518 1518 1518 1519 1518 1518 1518 1517 1518 1518 1518 1519 1519 1519 1520 1520 1520 1519 1519 1519 1518 1518 1518 1517 1517 1516 1515 1514 1513 1513 1512 1511 1510 1508 1507 1506 1505 1504 1503 1502 1501 1499 1498 1497 1496 1494 1493 1491 1490 1488 1485 1483 1481 1479 1476 1475 1474 1470 1466 1463 1460 1456 1453 1448 1441 1437 1432 1426
1473 1474 1476 1479 1483 1486 1491 1499 1505 1508 1508 1509 1511 1512 1513 1514 1515 1516 1516 1516 1517 1516 1516 1516 1515 1516 1515 1515 1516 1516 1516 1517 1517 1517 1517 1517 1517 1516 1516 1516 1515 1514 1514 1512 1511 1510 1510 1509 1508 1507 1505 1504 1503 1503 1501 1501 1500 1498 1497 1496 1494 1493 1492 1490 1489 1487 1485 1482 1480 1478 1476 1473 1471 1470 1468 1464 1459 1456 1452 1448 1444 1439 1434 1430 1424
1469 1471 1475 1480 1484 1487 1492 1499 1501 1501 1501 1504 1507 1509 1510 1510 1512 1513 1513 1514 1514 1514 1514 1513 1513 1513 1513 1513 1514 1514 1515 1515 1515 1515 1515 1514 1514 1514 1514 1513 1513 1512 1511 1510 1509 1508 1507 1506 1505 1504 1503 1502 1501 1500 1499 1498 1497 1496 1494 1493 1492 1491 1489 1488 1486 1484 1482 1479 1477 1475 1473 1471 1468 1466 1465 1462 1456 1451 1447 1443 1439 1435 1429 1425 1420
1468 1471 1476 1481 1484 1484 1487 1492 1494 1495 1496 1499 1502 1504 1505 1506 1508 1509 1510 1511 1511 1511 1511 1511 1511 1511 1511 1511 1512 1512 1513 1513 1513 1513 1512 1512 1512 1512 1511 1511 1510 1510 1509 1507 1506 1505 1504 1503 1502 1501 1500 1499 1498 1497 1496 1495 1494 1493 1491 1490 1489 1488 1486 1485 1483 1481 1479 1476 1474 1472 1470 1468 1465 1462 1461 1459 1454 1449 1443 1438 1433 1428 1423 1418 1413
1465 1467 1469 1472 1474 1477 1482 1487 1489 1491 1493 1495 1497 1499 1500 1502 1504 1506 1507 1508 1508 1508 1508 1508 1508 1508 1509 1509 1509 1510 1510 1511 1511 1510 1510 1510 1509 1509 1509 1508 1508 1507 1506 1505 1504 1503 1502 1500 1499 1498 1497 1496 1495 1494 1493 1492 1490 1489 1488 1487 1485 1484 1483 1481 1480 1478 1476 1474 1471 1468 1466 1465 1462 1459 1457 1454 1451 1447 1441 1435 1428 1422 1416 1410 1406
1460 1461 1461 1462 1466 1472 1477 1481 1483 1485 1488 1490 1493 1495 1496 1497 1500 1502 1503 1504 1505 1505 1506 1506 1506 1506 1506 1506 1507 1508 1508 1509 1508 1508 1507 1507 1507 1506 1506 1506 1505 1505 1504 1503 1502 1500 1499 1498 1496 1495 1494 1493 1492 1491 1490 1488 1487 1486 1484 1483 1482 1480 1479 1478 1477 1474 1472 1470 1468 1465 1463 1461 1459 1456 1453 1450 1447 1443 1437 1430 1424 1418 1411 1404 1399
1456 1457 1457 1460 1465 1471 1473 1475 1477 1481 1484 1486 1488 1490 1491 1493 1496 1498 1500 1501 1502 1502 1503 1503 1503 1503 1503 1504 1504 1505 1506 1506 1506 1505 1505 1504 1504 1503 1503 1503 1503 1502 1502 1501 1500 1498 1497 1496 1494 1493 1492 1490 1489 1488 1486 1485 1484 1483 1481 1480 1478 1476 1475 1474 1472 1470 1469 1467 1465 1462 1460 1458 1456 1453 1450 1447 1444 1440 1433 1425 1418 1413 1406 1399 1393
1454 1454 1454 1456 1462 1467 1468 1471 1475 1478 1480 1481 1483 1486 1488 1490 1492 1495 1497 1498 1499 1500 1500 1500 1500 1500 1500 1501 1502 1502 1503 1503 1503 1503 1502 1502 1501 1501 1501 1501 1500 1500 1499 1498 1497 1496 1495 1493 1492 1490 1489 1487 1486 1485 1483 1482 1481 1480 1478 1476 1474 1473 1472 1470 1468 1466 1465 1463 1461 1459 1457 1455 1452 1449 1446 1443 1440 1437 1430 1421 1414 1408 1401 1394 1387
1449 1449 1448 1451 1459 1464 1465 1469 1474 1476 1476 1477 1480 1482 1485 1487 1490 1492 1494 1496 1496 1497 1497 1497 1497 1497 1498 1498 1499 1499 1500 1501 1500 1500 1499 1499 1498 1498 1498 1498 1498 1497 1497 1496 1495 1493 1492 1490 1489 1487 1486 1485 1483 1482 1481 1479 1478 1477 1475 1473 1471 1469 1468 1467 1465 1462 1460 1459 1457 1456 1453 1451 1448 1445 1441 1438 1435 1431 1426 1418 1411 1403 1396 1388 1381
1444 1445 1446 1450 1458 1463 1464 1467 1471 1471 1472 1475 1478 1480 1482 1484 1487 1489 1491 1493 1493 1493 1493 1494 1494 1494 1494 1495 1495 1496 1497 1497 1497 1497 1497 1496 1496 1496 1495 1495 1495 1494 1494 1493 1491 1490 1489 1488 1486 1485 1483 1482 1480 1479 1478 1477 1475 1474 1472 1470 1468 1467 1465 1464 1462 1459 1457 1455 1454 1452 1449 1447 1444 1440 1436 1433 1430 1426 1421 1414 1407 1399 1390 1381 1374
1443 1445 1447 1451 1455 1457 1459 1463 1467 1469 1473 1476 1477 1478 1480 1482 1485 1487 1489 1489 1490 1490 1490 1490 1490 1491 1491 1491 1491 1492 1493 1494 1494 1494 1494 1494 1493 1493 1493 1492 1492 1491 1490 1489 1488 1487 1486 1485 1484 1482 1480 1478 1477 1476 1475 1474 1473 1471 1469 1468 1466 1464 1462 1460 1459 1457 1455 1453 1451 1449 1446 1443 1439 1436 1432 1428 1425 1420 1415 1408 1400 1393 1385 1375 1366
1442 1444 1447 1450 1452 1453 1456 1462 1468 1472 1475 1476 1477 1477 1479 1480 1482 1484 1485 1486 1486 1486 1486 1487 1487 1488 1488 1488 1488 1490 1491 1491 1491 1491 1491 1491 1490 1490 1490 1490 1489 1488 1487 1486 1486 1484 1483 1482 1481 1479 1477 1476 1475 1474 1473 1472 1470 1468 1467 1465 1464 1462 1460 1458 1456 1455 1453 1451 1449 1446 1443 1439 1435 1432 1428 1424 1420 1415 1409 1401 1394 1387 1377 1367 1359
1441 1444 1447 1449 1451 1453 1457 1463 1469 1472 1472 1473 1474 1475 1477 1478 1480 1482 1483 1483 1483 1483 1483 1484 1484 1485 1485 1484 1485 1487 1489 1488 1489 1489 1489 1488 1488 1487 1487 1487 1486 1485 1484 1484 1483 1482 1480 1479 1477 1476 1474 1473 1472 1471 1470 1469 1467 1466 1465 1463 1462 1460 1458 1456 1454 1453 1451 1449 1447 1444 1441 1437 1432 1428 1424 1420 1416 1411 1404 1397 1390 1382 1371 1360 1352
1443 1445 1447 1449 1452 1455 1458 1464 1469 1469 1468 1469 1471 1472 1474 1476 1478 1480 1481 1480 1480 1480 1482 1482 1482 1482 1483 1483 1484 1485 1486 1486 1487 1487 1486 1485 1485 1485 1484 1484 1483 1483 1482 1481 1480 1479 1478 1476 1475 1473 1472 1470 1470 1469 1468 1467 1465 1464 1463 1461 1459 1458 1456 1455 1453 1451 1449 1447 1444 1441 1438 1435 1431 1426 1422 1418 1413 1407 1401 1395 1389 1381 1369 1358 1352
1443 1446 1448 1449 1451 1453 1456 1461 1465 1465 1466 1468 1469 1471 1473 1475 1477 1479 1479 1478 1477 1478 1480 1481 1480 1481 1482 1482 1482 1483 1483 1484 1484 1484 1483 1483 1482 1482 1482 1481 1480 1480 1479 1478 1477 1476 1475 1473 1472 1471 1469 1468 1467 1467 1466 1465 1464 1462 1461 1459 1458 1456 1455 1453 1451 1449 1447 1445 1442 1439 1436 1433 1430 1425 1420 1416 1412 1406 1399 1393 1388 1379 1369 1360 1354
1443 1445 1448 1449 1451 1453 1455 1458 1461 1463 1465 1467 1468 1470 1472 1474 1475 1477 1477 1476 1475 1476 1477 1479 1479 1479 1480 1480 1480 1481 1482 1482 1482 1482 1481 1480 1480 1479 1479 1478 1478 1477 1476 1476 1475 1473 1472 1471 1469 1468 1467 1466 1465 1465 1464 1463 1462 1460 1459 1458 1456 1455 1453 1451 1449 1447 1445 1443 1440 1437 1435 1431 1428 1424 1419 1415 1410 1405 1399 1392 1386 1378 1369 1361 1356
1443 1445 1447 1449 1452 1455 1457 1460 1463 1464 1465 1466 1467 1468 1470 1472 1474 1475 1475 1474 1474 1475 1476 1477 1477 1477 1478 1478 1479 1479 1480 1480 1480 1479 1479 1478 1478 1477 1476 1476 1475 1474 1473 1473 1472 1471 1470 1468 1467 1466 1465 1464 1464 1463 1462 1461 1460 1459 1458 1457 1455 1454 1452 1450 1448 1445 1443 1441 1439 1436 1433 1430 1426 1423 1418 1413 1409 1404 1399 1393 1386 1379 1372 1365 1358
1443 1444 1446 1448 1451 1453 1456 1462 1465 1464 1462 1463 1466 1467 1469 1471 1473 1474 1473 1473 1473 1474 1474 1474 1475 1475 1476 1476 1477 1477 1478 1478 1477 1477 1476 1476 1475 1474 1474 1473 1472 1471 1471 1471 1470 1468 1468 1467 1466 1465 1464 1463 1463 1462 1461 1460 1459 1458 1457 1455 1454 1452 1451 1449 1447 1444 1442 1440 1437 1435 1432 1429 1425 1421 1417 1413 1408 1404 1399 1394 1388 1382 1376 1369 1361
1443 1444 1445 1447 1449 1450 1452 1457 1460 1460 1460 1462 1465 1467 1468 1470 1471 1471 1471 1471 1472 1472 1472 1473 1473 1474 1474 1475 1475 1475 1475 1475 1474 1474 1474 1473 1472 1472 1471 1470 1469 1469 1469 1468 1467 1466 1466 1465 1465 1464 1463 1463 1462 1461 1459 1458 1457 1456 1455 1454 1453 1451 1450 1447 1445 1443 1440 1438 1436 1433 1430 1427 1424 1420 1416 1412 1408 1403 1399 1394 1389 1385 1379 1372 1365
1443 1445 1446 1447 1449 1450 1452 1454 1455 1457 1460 1463 1465 1467 1468 1469 1469 1469 1469 1469 1470 1470 1470 1471 1471 1472 1472 1472 1472 1472 1472 1472 1472 1472 1471 1471 1470 1469 1468 1467 1467 1467 1466 1466 1465 1465 1464 1464 1464 1463 1462 1462 1460 1459 1458 1457 1456 1455 1454 1453 1452 1450 1448 1446 1444 1441 1439 1437 1435 1432 1429 1426 1423 1419 1415 1411 1407 1403 1399 1395 1391 1386 1380 1374 1368
1443 1446 1448 1450 1451 1452 1453 1454 1455 1458 1462 1463 1463 1464 1465 1466 1466 1467 1467 1467 1468 1468 1468 1469 1469 1470 1470 1470 1470 1470 1470 1469 1469 1469 1469 1468 1468 1467 1466 1465 1465 1465 1465 1464 1463 1463 1463 1462 1462 1462 1461 1460 1459 1458 1457 1455 1455 1454 1453 1452 1450 1448 1446 1444 1442 1440 1438 1436 1434 1431 1428 1425 1422 1419 1416 1412 1408 1404 1400 1397 1393 1388 1383 1379 1374
1445 1448 1450 1452 1453 1453 1453 1453 1454 1457 1459 1459 1459 1460 1462 1463 1464 1464 1465 1465 1465 1466 1466 1467 1467 1468 1468 1468 1467 1467 1467 1467 1467 1467 1466 1466 1466 1465 1464 1464 1463 1463 1463 1462 1462 1462 1461 1461 1461 1460 1460 1459 1458 1457 1455 1454 1454 1453 1451 1450 1449 1447 1445 1443 1441 1439 1437 1435 1432 1430 1427 1425 1422 1419 1415 1412 1408 1405 1401 1397 1394 1390 1385 1383 1379
1444 1446 1449 1450 1451 1451 1450 1450 1451 1453 1454 1455 1457 1459 1460 1461 1461 1462 1462 1463 1463 1464 1464 1465 1465 1465 1465 1465 1465 1465 1465 1465 1465 1465 1464 1464 1464 1463 1463 1462 1462 1462 1462 1461 1461 1460 1459 1459 1459 1459 1458 1458 1456 1455 1454 1453 1452 1451 1450 1449 1448 1446 1444 1442 1440 1438 1436 1434 1431 1429 1426 1424 1421 1418 1415 1412 1408 1405 1401 1398 1395 1391 1387 1384 1380
1443 1444 1446 1448 1448 1448 1448 1448 1449 1451 1452 1455 1456 1457 1458 1459 1459 1460 1460 1461 1461 1461 1462 1462 1463 1463 1463 1463 1463 1463 1464 1463 1463 1463 1463 1463 1462 1462 1461 1461 1461 1461 1461 1460 1460 1459 1458 1458 1457 1457 1457 1456 1455 1454 1453 1452 1451 1450 1449 1448 1446 1445 1443 1441 1439 1437 1435 1433 1431 1428 1426 1423 1420 1417 1414 1411 1408 1406 1402 1399 1396 1392 1387 1384 1381
1443 1443 1444 1446 1447 1448 1448 1448 1449 1451 1453 1454 1455 1456 1456 1457 1457 1458 1459 1459 1459 1459 1460 1461 1461 1461 1462 1461 1461 1461 1461 1461 1461 1461 1461 1461 1461 1461 1460 1460 1460 1460 1460 1459 1459 1458 1457 1456 1456 1456 1456 1455 1454 1454 1452 1451 1450 1449 1448 1447 1445 1444 1442 1440 1438 1436 1435 1432 1430 1428 1425 1423 1420 1417 1414 1411 1409 1406 1403 1400 1397 1393 1389 1386 1383
1440 1442 1443 1445 1446 1447 1448 1449 1450 1451 1452 1453 1453 1454 1455 1455 1456 1456 1457 1457 1457 1458 1459 1459 1460 1460 1460 1460 1459 1459 1459 1459 1459 1459 1460 1460 1460 1460 1459 1459 1459 1459 1458 1458 1457 1457 1456 1455 1455 1455 1455 1454 1453 1452 1451 1450 1449 1448 1447 1445 1444 1443 1441 1439 1437 1436 1434 1432 1430 1428 1425 1423 1420 1417 1414 1412 1409 1407 1404 1401 1398 1395 1392 1388 1385
1440 1441 1443 1444 1445 1446 1447 1448 1449 1450 1451 1452 1452 1453 1454 1454 1454 1455 1455 1455 1455 1456 1457 1458 1458 1459 1459 1458 1458 1458 1458 1458 1458 1458 1458 1459 1458 1458 1458 1457 1457 1457 1457 1456 1456 1455 1455 1454 1454 1454 1454 1453 1452 1451 1450 1449 1448 1447 1446 1444 1443 1441 1440 1438 1437 1435 1434 1432 1430 1428 1425 1423 1420 1418 1415 1413 1410 1408 1405 1402 1399 1397 1394 1391 1388
1441 1442 1443 1444 1445 1445 1446 1447 1448 1449 1450 1450 1451 1452 1452 1452 1453 1453 1453 1452 1453 1454 1455 1456 1456 1457 1457 1457 1457 1457 1457 1457 1457 1457 1457 1457 1456 1456 1456 1456 1455 1455 1455 1455 1454 1454 1453 1453 1453 1453 1453 1452 1451 1450 1449 1448 1447 1446 1445 1443 1442 1440 1439 1438 1437 1435 1434 1432 1430 1428 1426 1424 1421 1419 1416 1413 1411 1409 1406 1404 1401 1398 1396 1393 1390
1442 1443 1444 1444 1445 1445 1446 1447 1447 1448 1448 1449 1449 1450 1450 1451 1451 1452 1451 1451 1452 1453 1454 1454 1454 1455 1455 1455 1455 1456 1456 1456 1456 1456 1455 1455 1454 1454 1454 1454 1454 1454 1454 1454 1453 1453 1452 1452 1452 1452 1451 1451 1450 1449 1447 1446 1446 1444 1443 1442 1441 1440 1439 1438 1437 1435 1434 1432 1430 1428 1426 1424 1422 1420 1417 1415 1412 1410 1408 1405 1403 1400 1398 1395 1393
1442 1443 1445 1445 1445 1445 1445 1446 1447 1447 1448 1448 1448 1448 1449 1449 1450 1449 1449 1450 1451 1452 1452 1452 1453 1453 1453 1454 1454 1454 1455 1455 1455 1454 1454 1453 1452 1452 1452 1452 1453 1453 1453 1453 1452 1452 1451 1451 1450 1450 1450 1449 1448 1447 1446 1445 1444 1443 1442 1441 1440 1439 1439 1438 1436 1435 1434 1432 1431 1429 1427 1425 1423 1421 1419 1416 1414 1411 1409 1407 1404 1402 1399 1397 1395
1441 1443 1444 1444 1444 1444 1444 1445 1446 1446 1447 1447 1447 1447 1447 1448 1448 1447 1448 1449 1450 1450 1450 1451 1451 1451 1451 1452 1452 1453 1453 1454 1453 1453 1452 1451 1451 1450 1450 1451 1451 1451 1451 1451 1451 1451 1450 1450 1449 1449 1449 1448 1447 1446 1445 1444 1443 1442 1441 1441 1440 1439 1438 1437 1436 1435 1434 1433 1431 1429 1427 1426 1424 1422 1419 1417 1415 1413 1411 1408 1406 1404 1401 1399 1397
1439 1441 1442 1442 1443 1442 1443 1443 1444 1444 1445 1445 1445 1445 1445 1446 1446 1446 1446 1447 1447 1448 1449 1449 1449 1449 1450 1450 1450 1451 1452 1452 1451 1451 1450 1449 1449 1448 1448 1449 1450 1450 1450 1450 1450 1449 1449 1449 1448 1448 1447 1447 1446 1444 1444 1443 1442 1442 1441 1441 1440 1439 1439 1438 1437 1436 1434 1433 1432 1430 1428 1426 1425 1422 1420 1418 1416 1414 1412 1409 1407 1405 1403 1401 1399
1439 1440 1440 1440 1441 1441 1441 1442 1442 1443 1443 1443 1443 1444 1444 1444 1444 1444 1444 1445 1445 1446 1447 1447 1447 1447 1448 1448 1449 1449 1450 1449 1449 1448 1448 1447 1447 1446 1447 1448 1448 1448 1449 1449 1448 1448 1448 1448 1447 1447 1446 1445 1444 1443 1443 1442 1442 1442 1441 1441 1440 1440 1439 1438 1437 1436 1435 1433 1432 1430 1429 1427 1425 1423 1421 1419 1417 1415 1413 1411 1408 1406 1404 1402 1401
1438 1438 1438 1439 1439 1439 1440 1440 1440 1441 1441 1441 1441 1442 1443 1443 1443 1443 1443 1443 1443 1444 1444 1445 1445 1446 1446 1446 1447 1447 1447 1447 1447 1447 1446 1445 1445 1445 1445 1446 1446 1447 1447 1447 1447 1447 1447 1447 1446 1446 1445 1444 1443 1443 1442 1442 1442 1441 1441 1440 1440 1439 1439 1438 1437 1436 1435 1434 1432 1431 1429 1428 1426 1424 1422 1420 1419 1417 1414 1412 1410 1408 1406 1404 1403
1436 1436 1437 1437 1437 1438 1438 1438 1439 1439 1440 1439 1440 1440 1440 1441 1441 1441 1441 1441 1441 1442 1442 1443 1443 1444 1444 1445 1445 1445 1445 1446 1445 1445 1445 1444 1444 1444 1444 1444 1445 1446 1446 1446 1446 1446 1446 1446 1445 1445 1444 1443 1442 1442 1442 1442 1441 1441 1441 1440 1440 1439 1438 1438 1437 1437 1435 1434 1432 1431 1430 1428 1426 1425 1423 1421 1420 1418 1416 1414 1412 1410 1408 1406 1405
1435 1435 1435 1436 1436 1437 1437 1437 1437 1438 1438 1438 1438 1438 1438 1438 1438 1439 1439 1439 1440 1440 1440 1441 1441 1442 1442 1443 1443 1444 1444 1444 1444 1444 1444 1443 1442 1442 1442 1443 1444 1444 1445 1445 1445 1445 1445 1445 1444 1443 1443 1442 1442 1442 1442 1441 1441 1441 1440 1440 1439 1439 1438 1438 1437 1436 1435 1434 1433 1432 1430 1429 1427 1425 1424 1422 1421 1419 1417 1416 1414 1412 1410 1409 1407
1434 1434 1434 1435 1435 1435 1435 1436 1436 1436 1437 1437 1437 1437 1437 1437 1437 1437 1438 1438 1438 1438 1438 1439 1439 1440 1440 1441 1442 1442 1442 1442 1442 1442 1442 1442 1441 1441 1441 1441 1442 1443 1443 1443 1444 1444 1444 1444 1443 1442 1442 1441 1441 1441 1441 1441 1440 1440 1440 1439 1438 1438 1437 1437 1437 1436 1435 1434 1433 1432 1431 1429 1428 1426 1425 1423 1422 1420 1419 1417 1415 1414 1412 1411 1409
1433 1434 1434 1434 1434 1434 1434 1435 1435 1436 1436 1436 1436 1436 1436 1436 1436 1436 1436 1436 1437 1437 1437 1437 1438 1438 1439 1439 1440 1440 1440 1440 1440 1440 1440 1440 1440 1440 1440 1440 1441 1442 1442 1442 1443 1443 1443 1443 1442 1442 1441 1441 1441 1440 1440 1440 1440 1439 1439 1438 1437 1437 1436 1436 1436 1436 1435 1434 1433 1432 1431 1430 1429 1427 1426 1424 1423 1421 1420 1418 1417 1415 1414 1413 1411
1433 1433 1433 1433 1433 1433 1433 1434 1434 1434 1434 1434 1435 1435 1435 1435 1435 1435 1434 1434 1435 1435 1435 1436 1436 1436 1437 1437 1438 1438 1439 1439 1439 1439 1439 1439 1439 1439 1439 1440 1441 1441 1441 1441 1442 1442 1442 1442 1441 1441 1440 1440 1440 1440 1440 1439 1439 1439 1438 1437 1436 1436 1435 1435 1435 1435 1434 1434 1433 1432 1431 1430 1429 1428 1427 1425 1424 1422 1421 1420 1418 1417 1415 1414 1413
1432 1432 1432 1432 1432 1432 1432 1433 1433 1433 1433 1433 1433 1433 1433 1433 1433 1433 1433 1433 1433 1433 1434 1434 1434 1435 1435 1436 1436 1437 1437 1437 1437 1437 1437 1437 1437 1438 1438 1439 1440 1440 1440 1440 1441 1441 1441 1441 1440 1440 1440 1440 1439 1439 1439 1439 1438 1438 1437 1436 1436 1435 1434 1434 1434 1434 1433 1433 1433 1432 1431 1430 1430 1428 1427 1426 1425 1423 1422 1421 1420 1418 1417 1415 1414
1432 1432 1432 1432 1431 1431 1431 1431 1431 1431 1431 1431 1431 1431 1431 1431 1431 1431 1431 1431 1432 1432 1432 1433 1433 1433 1434 1434 1434 1435 1435 1435 1436 1436 1436 1436 1436 1437 1437 1438 1438 1439 1439 1439 1439 1440 1440 1439 1439 1439 1439 1439 1439 1439 1438 1438 1438 1437 1436 1435 1434 1434 1433 1433 1433 1432 1432 1432 1432 1432 1431 1430 1430 1429 1428 1427 1426 1424 1423 1422 1421 1420 1419 1417 1416